Home   Weather   Mannheim   Past weeks

Flag for Germany Past Weather in Mannheim, Baden-Württemberg, Germany — Yesterday and Last 2 Weeks

Now
25 °F

Clear.


Feels Like: 13 °F
Forecast: 17 / 29 °F
Wind: 13 mph from Northeast

Location: Frankfurt-M-Flughafen Airport

Current Time: Jan 18, 2017 at 11:39:31 pm

Latest Report: Jan 18, 2017 at 11:20 pm


Visibility: 10 mi

Pressure: 30.63 "Hg

Humidity: 74%

Dew Point: 18 °F

Location of MannheimLocation

Past Weather in Mannheim — Graph

°F

Mannheim Temperature Yesterday

Maximum temperature yesterday: 34 °F (at 11:50 am)
Minimum temperature yesterday: 25 °F (at 12:20 am)
Average temperature yesterday: 29 °F

High & Low Weather Summary for the Past Weeks

 TemperatureHumidityPressure
High43 °F (Jan 12, 12:50 pm)100% (Jan 5, 12:20 am)30.77 "Hg (Jan 5, 12:20 am)
Low12 °F (Jan 7, 1:50 am)48% (Jan 17, 11:50 am)29.15 "Hg (Jan 13, 12:50 am)
Average31 °F81%30.18 "Hg
* Reported Jan 3 10:20 pm — Jan 18 10:20 pm, Mannheim, Weather by CustomWeather, © 2017

Note: Actual official high and low records may vary slightly from our data, if they occured in-between our weather recording intervals... More about our weather records

Advertising

Mannheim Weather History for the Previous 24 Hours

Scroll right to see more
 ConditionsComfort  
Time TempWeatherWind HumidityBarometerVisibility
10:20 pm
Wed, Jan 18
27 °FClear.12 mph74%30.60 "Hg10 mi
9:50 pm27 °FClear.12 mph74%30.63 "Hg10 mi
9:20 pm28 °FClear.10 mph64%30.63 "Hg10 mi
8:50 pm28 °FClear.14 mph69%30.63 "Hg10 mi
8:20 pm27 °FClear.13 mph74%30.63 "Hg10 mi
7:50 pm27 °FClear.13 mph69%30.63 "Hg10 mi
7:20 pm28 °FClear.14 mph64%30.63 "Hg10 mi
6:50 pm28 °FClear.14 mph64%30.63 "Hg10 mi
6:20 pm30 °FClear.14 mph59%30.63 "Hg10 mi
5:50 pm28 °FClear.15 mph64%30.63 "Hg10 mi
5:20 pm30 °FClear.12 mph59%30.63 "Hg10 mi
4:50 pm30 °FSunny.14 mph59%30.63 "Hg10 mi
4:20 pm30 °FSunny.14 mph59%30.63 "Hg10 mi
3:50 pm32 °FSunny.13 mph55%30.63 "Hg10 mi
3:20 pm32 °FSunny.13 mph55%30.60 "Hg10 mi
2:50 pm32 °FSunny.13 mph60%30.60 "Hg10 mi
2:20 pm32 °FPassing clouds.15 mph60%30.63 "HgN/A
1:50 pm32 °FSunny.15 mph55%30.60 "Hg10 mi
1:20 pm30 °FSunny.14 mph59%30.63 "Hg10 mi
12:50 pm30 °FSunny.15 mph59%30.63 "Hg10 mi
12:20 pm28 °FPassing clouds.15 mph64%30.63 "HgN/A
11:50 am30 °FPassing clouds.14 mph59%30.66 "HgN/A
11:20 am28 °FPassing clouds.13 mph64%30.66 "HgN/A
10:50 am28 °FPassing clouds.14 mph64%30.66 "HgN/A
10:20 am27 °FPassing clouds.14 mph69%30.66 "HgN/A
9:50 am27 °FPassing clouds.14 mph69%30.66 "HgN/A
9:20 am25 °FPassing clouds.14 mph74%30.66 "HgN/A
8:50 am25 °FPassing clouds.15 mph74%30.66 "HgN/A
8:20 am25 °FPartly sunny.15 mph74%30.66 "HgN/A
7:50 am25 °FPassing clouds.13 mph74%30.63 "HgN/A
7:20 am25 °FPassing clouds.12 mph74%30.63 "HgN/A
6:50 am25 °FPassing clouds.12 mph74%30.63 "HgN/A
6:20 am27 °FPassing clouds.12 mph69%30.63 "HgN/A
5:50 am27 °FPassing clouds.10 mph69%30.63 "HgN/A
5:20 am27 °FPassing clouds.10 mph69%30.63 "HgN/A
4:50 am25 °FPassing clouds.12 mph74%30.63 "HgN/A
4:20 am25 °FPassing clouds.13 mph74%30.63 "HgN/A
3:50 am25 °FPassing clouds.12 mph74%30.63 "HgN/A
3:20 am25 °FPassing clouds.13 mph80%30.63 "HgN/A
2:50 am25 °FPassing clouds.12 mph80%30.63 "HgN/A
2:20 am25 °FPassing clouds.10 mph80%30.63 "HgN/A
1:50 am25 °FPassing clouds.12 mph74%30.63 "HgN/A
1:20 am25 °FClear.13 mph74%30.63 "Hg10 mi
12:50 am27 °FClear.13 mph69%30.63 "Hg10 mi
12:20 am27 °FClear.10 mph69%30.63 "Hg10 mi
11:50 pm
Tue, Jan 17
27 °FClear.10 mph69%30.63 "Hg10 mi
11:20 pm27 °FClear.13 mph69%30.63 "Hg10 mi
Weather by CustomWeather, © 2017

See weather overviewHow to use our weather pages